Molokai, HI

9:19 PM HST on March 26, 2017 (GMT -1000)
Molokai

Weather History for PHMK - March, 2012

Change the Weather History Date:

Friday, March 23, 2012

  Actual Average Record
Temperature  
Mean Temperature 73 °F -  
Max Temperature 78 °F 78 °F 84 °F (1981)
Min Temperature 68 °F 64 °F 51 °F (1986)
Cooling Degree Days 8    
Growing Degree Days 23 (Base 50)    
Moisture  
Dew Point 61 °F    
Average Humidity 69    
Maximum Humidity 78    
Minimum Humidity 46    
Precipitation  
Precipitation 0.00 in - - ()
Sea Level Pressure  
Sea Level Pressure 30.07 in    
Wind  
Wind Speed 15 mph (NE)    
Max Wind Speed 22 mph    
Max Gust Speed 33 mph    
Visibility 10 miles    
Events      
Averages and records for this station are not official NWS values.
T = Trace of Precipitation, MM = Missing Value Source: NWS Daily Summary

Daily Weather History Graph

Daily Weather History Graph

Search for Another Location

Airport or City:

Trip Planner

Search our weather history database for the weather conditions in past years. The results will help you decide how hot, cold, wet, or windy it might be!

Date:

Astronomy

Mar. 23, 2012 Rise Set
Actual Time 6:29 AM HST 6:40 PM HST
Civil Twilight 6:06 AM HST 7:02 PM HST
Nautical Twilight 5:41 AM HST 7:28 PM HST
Astronomical Twilight 5:15 AM HST 7:54 PM HST
Moon 6:58 AM HST (3/23) 7:54 PM HST (3/23)
Length of Visible Light 12h 55m
Length of Day
12h 11m
New Moon, 2% of the Moon is Illuminated
Mar 23
New Moon
Mar 30
First Quarter
Apr 6
Full
Apr 13
Last Quarter
Apr 20
New

Hourly Weather History & Observations

Time (HST) Temp. Dew Point Humidity Pressure Visibility Wind Dir Wind Speed Gust Speed Precip Events Conditions
12:54 AM 69.1 °F 62.1 °F 78% 30.09 in 10.0 mi NE 12.7 mph 24.2 mph N/A   Mostly Cloudy
1:21 AM 69.8 °F 62.6 °F 78% 30.07 in 10.0 mi ENE 12.7 mph 19.6 mph N/A   Scattered Clouds
1:54 AM 69.1 °F 62.1 °F 78% 30.07 in 10.0 mi NE 15.0 mph 25.3 mph N/A   Clear
2:54 AM 68.0 °F 61.0 °F 78% 30.05 in 10.0 mi NE 11.5 mph 21.9 mph N/A   Clear
3:54 AM 69.1 °F 61.0 °F 75% 30.04 in 10.0 mi NE 10.4 mph 18.4 mph N/A   Clear
4:54 AM 68.0 °F 61.0 °F 78% 30.04 in 10.0 mi NE 9.2 mph - N/A   Clear
5:54 AM 69.1 °F 62.1 °F 78% 30.04 in 10.0 mi NE 13.8 mph 20.7 mph N/A   Partly Cloudy
6:54 AM 69.1 °F 61.0 °F 75% 30.07 in 10.0 mi NE 12.7 mph 20.7 mph N/A   Partly Cloudy
7:01 AM 69.8 °F 60.8 °F 73% 30.06 in 10.0 mi NE 13.8 mph 24.2 mph N/A   Scattered Clouds
7:09 AM 69.8 °F 60.8 °F 73% 30.07 in 10.0 mi NE 13.8 mph 24.2 mph N/A   Mostly Cloudy
7:19 AM 69.8 °F 60.8 °F 73% 30.07 in 10.0 mi NE 13.8 mph 23.0 mph N/A   Overcast
7:54 AM 71.1 °F 61.0 °F 70% 30.09 in 10.0 mi NE 16.1 mph 26.5 mph N/A   Partly Cloudy
8:01 AM 71.6 °F 60.8 °F 69% 30.08 in 10.0 mi NE 17.3 mph 26.5 mph N/A   Overcast
8:41 AM 73.4 °F 60.8 °F 65% 30.09 in 10.0 mi NE 19.6 mph 23.0 mph N/A   Overcast
8:54 AM 72.0 °F 60.1 °F 66% 30.10 in 10.0 mi NE 16.1 mph 24.2 mph N/A   Scattered Clouds
9:01 AM 73.4 °F 59.0 °F 61% 30.09 in 10.0 mi NE 20.7 mph 27.6 mph N/A   Scattered Clouds
9:54 AM 75.9 °F 54.0 °F 46% 30.11 in 10.0 mi ENE 18.4 mph 26.5 mph N/A   Partly Cloudy
10:54 AM 77.0 °F 57.9 °F 52% 30.12 in 10.0 mi NE 15.0 mph 24.2 mph N/A   Partly Cloudy
11:54 AM 77.0 °F 59.0 °F 54% 30.09 in 10.0 mi NE 18.4 mph 31.1 mph N/A   Partly Cloudy
12:54 PM 78.1 °F 60.1 °F 54% 30.07 in 10.0 mi NE 19.6 mph 28.8 mph N/A   Partly Cloudy
1:54 PM 77.0 °F 59.0 °F 54% 30.05 in 10.0 mi NE 21.9 mph 29.9 mph N/A   Clear
2:54 PM 75.9 °F 61.0 °F 60% 30.04 in 10.0 mi NE 19.6 mph 33.4 mph N/A   Partly Cloudy
3:54 PM 75.9 °F 62.1 °F 62% 30.03 in 10.0 mi NE 19.6 mph 32.2 mph N/A   Partly Cloudy
4:54 PM 75.0 °F 59.0 °F 57% 30.04 in 10.0 mi NE 20.7 mph 32.2 mph N/A   Partly Cloudy
5:54 PM 72.0 °F 62.1 °F 71% 30.05 in 10.0 mi NNE 13.8 mph 23.0 mph N/A   Clear
6:54 PM 71.1 °F 61.0 °F 70% 30.07 in 10.0 mi NE 18.4 mph 25.3 mph N/A   Clear
7:54 PM 70.0 °F 63.0 °F 78% 30.08 in 10.0 mi ENE 18.4 mph 28.8 mph N/A   Partly Cloudy
8:54 PM 70.0 °F 63.0 °F 78% 30.08 in 10.0 mi NE 12.7 mph 31.1 mph N/A   Partly Cloudy
9:54 PM 70.0 °F 62.1 °F 76% 30.09 in 10.0 mi NE 12.7 mph 19.6 mph N/A   Clear
10:54 PM 70.0 °F 62.1 °F 76% 30.09 in 10.0 mi NE 19.6 mph 28.8 mph N/A   Clear
11:54 PM 70.0 °F 63.0 °F 78% 30.10 in 10.0 mi NE 21.9 mph 32.2 mph N/A   Clear